Regional Weather Roundup
Issued by NWS Mobile, AL

Home | Current Version | Previous Version | Text Only | Print | Product List | Glossary On
Versions: 1 2 3 4 5 6 7 8 9 10 11 12 13 14 15 16 17 18 19 20 21 22 23 24 25 26 27 28 29 30 31 32 33 34 35 36 37 38 39 40 41 42 43 44 45 46 47 48 49 50
000
ASUS44 KMOB 262312
RWRMOB
REGIONAL WEATHER ROUNDUP
NATIONAL WEATHER SERVICE MOBILE AL
600 PM CDT THU MAY 26 2016

NOTE: "FAIR" INDICATES FEW OR NO CLOUDS BELOW 12,000 FEET WITH NO
      SIGNIFICANT WEATHER AND/OR OBSTRUCTIONS TO VISIBILITY.

  * THESE STATIONS ARE PART OF THE UNIVERSITY OF SOUTH ALABAMA
    MESONET AND ARE NOT UNDER NWS OR FAA QUALITY CONTROL.

ALZ061>064-270000-
COASTAL ALABAMA

CITY           SKY/WX    TMP DP  RH WIND       PRES   REMARKS
MOBILE REG APT PTSUNNY   82  69  64 S13       30.03F
BROOKLEY FIELD PTSUNNY   81  72  74 SE10      30.04F
USA CAMPUS*    NOT AVBL
DOG RIVER*     NOT AVBL


CITY           SKY/WX    TMP DP  RH WIND       PRES   REMARKS
MOUNT VERNON*  NOT AVBL
SARALAND*      NOT AVBL
BAY MINETTE*   NOT AVBL
LOXLEY*        NOT AVBL
ROBERTSDALE*   NOT AVBL
FAIRHOPE*      NOT AVBL
ELBERTA*       NOT AVBL
FOLEY*         NOT AVBL
GRAND BAY*     NOT AVBL
DAUPHIN ISLND* NOT AVBL
BON SCOUR NWR* NOT AVBL
GULF SHORES    MOSUNNY   81  73  77 SE10G23   30.04F

$$

ALZ051>060-270000-
INTERIOR SOUTHWEST AND SOUTH CENTRAL ALABAMA

CITY           SKY/WX    TMP DP  RH WIND       PRES   REMARKS
GREENVILLE     MOSUNNY   87  62  43 SE7       30.04F
EVERGREEN      MOSUNNY   84  65  52 S9        30.04F
CASTLEBERRY*   NOT AVBL
ATMORE*        NOT AVBL
DIXIE*         NOT AVBL
ANDALUSIA/OPP  MOSUNNY   89  62  40 SW6       30.04F
ANDALUSIA*     NOT AVBL
FLORALA APT    MOSUNNY   83  61  47 SW7       30.06F
FLORALA*       NOT AVBL

$$

FLZ001>006-270000-
WESTERN FLORIDA PANHANDLE

CITY           SKY/WX    TMP DP  RH WIND       PRES   REMARKS
PENSACOLA      MOSUNNY   82  70  66 S10       30.05F
NAS PENSACOLA  PTSUNNY   81  72  74 S8        30.04F
MILTON         NOT AVBL
WHTNG S FIELD  PTSUNNY   84  68  58 S8        30.05F


CITY           SKY/WX    TMP DP  RH WIND       PRES   REMARKS
WALNUT HILL*   NOT AVBL
JAY*           NOT AVBL
DUKE FIELD     PTSUNNY   83  64  51 S12       30.05F
CRESTVIEW      SUNNY     85  61  44 S10       30.07F
VALPARAISO     MOSUNNY   80  72  74 S8        30.06F
DESTIN         MOSUNNY   83  74  74 S7        30.05F

$$

MSZ076-079-270000-
INTERIOR SOUTHEAST MISSISSIPPI

CITY           SKY/WX    TMP DP  RH WIND       PRES   REMARKS
LEAKESVILLE*   NOT AVBL
AGRICOLA*      NOT AVBL

$$

MARINE OBSERVATIONS

STATION/POSITION TIME  TEMP    WIND        PRES    WAVE
                       AIR SEA DIR/SP/G            HT/PER
                 (UTC) (F)     (DEG/KT/KT) (MB)    (FT/S)
PASCAGOULA       2200          160/ 12/ 14 1017.2F
PETIT BOIS ISLND 2200          170/ 10/ 12 1018.1F
GRAND BAY        2100   80     150/ 11     1020.0S
KATRINA CUT      2200   79     180/  9     1018.6F
CEDAR POINT      2200   81     190/ 10     1018.0F
E DAUPHIN ISLAND 2300   79     150/ 11/ 12 1016.4F
MIDDLE BAY LIGHT 2200   80     160/ 12     1018.3S
USCG MOBILE BAY  2200      80  170/ 10/ 15 1018.2F
STATE DOCKS      2200      80              1017.8F
MEAHER PARK      2200   80     190/ 15     1016.6F
WEEKS BAY        2100   85                   N/A
FORT MORGAN      2200          190/  8/  9 1017.6F
12 S ORANGE BCH  2250   79 81  150/  8/ 10 1016.6F   2/ 6
PENSACOLA BAY    2200      81  190/  6/  8 1018.5F
64 S DAUPHIN ISL 2300   79 79  130/ 10/ 12 1016.3F

$$

SELECTED LOCATIONS ACROSS THE REGION

CITY           SKY/WX    TMP DP  RH WIND       PRES   REMARKS
NEW ORLEANS    PTSUNNY   84  70  62 S15       30.00S
GULFPORT       SUNNY     82  69  64 SE14      30.00F
PASCAGOULA AP  SUNNY     82  70  66 SE10      30.02F
PASCAGOULA*    NOT AVBL
HATTIESBURG    SUNNY     85  63  47 S12       29.99F
LAUREL         CLOUDY    84  63  48 S10       30.01F
MERIDIAN       SUNNY     87  63  44 S8        30.00F
JACKSON        PTSUNNY   85  69  58 S13       29.95F
MONTGOMERY     MOSUNNY   88  63  43 SE8       30.05S
TROY           SUNNY     87  64  46 SW7       30.06S
KINSTON*       NOT AVBL
GENEVA*        NOT AVBL
ASHFORD*       NOT AVBL
DOTHAN         CLOUDY    87  62  43 SW3       30.08F
PANAMA CITY    MOSUNNY   82  68  62 S8        30.05F

$$




USA.gov is the U.S. government's official web portal to all federal, state and local government web resources and services.